STARLINK-34906, 65896

Orbit data source: Space-Track

STARLINK-34906, 65896 is a payload satellite owned by SpaceX/Seattle (US) in LEO that was launched on Tue, 07 Oct 2025 UTC via an FALCON 9 launch vehicle from the Air Force Eastern Test Range (AFETR). Payload-class satellites include a variety of spacecraft equipped with specific instruments for various scientific and technological missions. These include communications satellites like Starlink; space stations such as the ISS; scientific satellites like the Hubble; Earth observation satellites from companies like Planet Labs, Umbra, and HawkEye 360; GPS; miniature CubeSats for education and research; and military/defense satellites.

Loading next visibility...
Identifier
65896, 2025-224Q
Orbit
LEO
Country
Flag of USUS
Related business
Manufacturer
SpaceX/Seattle
Mission
Operational spacecraft
Bus & Motor
STARLINK V2MO, Unknown motor
Mass
575 kg wet, ~530 kg dry
Launch date (UTC)
2025-10-07 (2 months ago)
Launch vehicle
FALCON 9
Launch site
Air Force Eastern Test Range (AFETR)
Object type
Payload
Rocket body
Debris
Shape & HBR
Unknown shape, 17.7 m
Radar Cross Section
RCS unknown

Expand to show TLE details & history
Last TLE update: 14 hours ago

TLE from 14 hours ago
0 STARLINK-34906
1 65896U 25224Q   25340.61645575  .00052119  00000-0  17581-2 0  9994
2 65896  53.1622  83.7073 0001374  77.9174 282.1981 15.30227054 10622
Epoch: 2025-12-06T14:47Z
TLE epoch observation values (Epoch: 2025-12-06T14:47:41.776Z)
Latitude
-0.00001°
Longitude
146.14159°
Altitude
475.835 km
Speed
7.629 km/s
True Right ascension
05h 34m 49s
True Declination
0° 00' 00"
Sunlit
Object was in full shadow at epoch
Visualization orbit readout
Latitude
Unknown
Longitude
Unknown
Altitude
Unknown
Speed
Unknown
Apparent Right ascension
Unknown
Apparent Declination
Unknown
Sunlit
N/A
Visualization observer readout
Local Sidereal Time
03:08:03
Azimuth
Unknown
Elevation
Unknown
Doppler factor
Unknown
Orbital elements
Apogee altitude
476.332 km
Perigee altitude
474.449 km
Semi-major axis
6,853.527 km
Eccentricity
0.00014
Inclination
53.1622°
RAAN
83.7073°
Arg. of periapsis
77.9174°
True anomaly
282.18271°
Mean anomaly
282.1981°
Eccentric anomaly
282.19041°
Mean motion
3.82536 °/min
Orbital period
94.11 mins
BSTAR
0.0017581
Loading maneuver chart data...
Computing Atmospheric mass density...
Loading historical data...
Loading historical data...
Loading historical data...
Loading historical data...
Loading historical data...
Loading historical data...
Loading historical data...

Documentation

Showing up to 5 results
|